STARLINK-1636 (46153 NORAD) Tracking and Keplerian Element Data

This shows tracking and keplerian element data for the satellite.

Feedback or suggestion? Click here.




ElementValue
Catalog46153
NameSTARLINK-1636
Epoch Orbit180
Epoch Day336.91667824
Epoch Year2020
RAAN292.7628
Inclination53.0009
Eccentricity0.0001651
Argument of Perigee73.3661
Mean Anonmoly77.4623
Mean Motion15.05593814
Decay Rate4.751E-05
L11 46153U 20057AN 20336.91667824 .00004751 00000-0 34491-3 0 9991
L22 46153 53.0009 292.7628 0001651 73.3661 77.4623 15.05593814 1802

Live tracking and technical data element details for STARLINK-1636 (NORAD 46153). STARLINK-1636 can be tracked NOW for your location showing map with azimuth and elevation plus other details from your city location.

Track the satellite on the map from your city or location and see movement details for azimuth, elevation, latitude, longitude, range, height, and movement on the map or in text.







IsCatalogInMostPopularTable: catalog: 46153, numindb: 20
Update: records affected: 1



GetName: 46153 STARLINK-1636

Hit Count: updated at: Thu, 03 Dec 2020 03:00:14 GMT